Time,TemperatureF,DewpointF,PressureIn,WindDirection,WindDirectionDegrees,WindSpeedMPH,WindSpeedGustMPH,Humidity,HourlyPrecipIn,Conditions,Clouds,dailyrainin,SoftwareType,DateUTC
2013-05-22 00:01:00,42.8,38.9,31.01,SSW,208,0.0,0.0,86,0.04,,---,0.00,VWS V14.01,2013-05-22 07:01:00,
2013-05-22 00:06:00,43.0,39.1,31.01,SSW,208,0.0,0.0,86,0.04,,---,0.00,VWS V14.01,2013-05-22 07:06:00,
2013-05-22 00:11:00,43.0,39.1,31.01,SSW,208,0.0,0.0,86,0.04,,---,0.00,VWS V14.01,2013-05-22 07:11:00,
2013-05-22 00:16:00,42.8,38.9,31.01,SSW,209,0.0,0.0,86,0.04,,---,0.00,VWS V14.01,2013-05-22 07:16:00,
2013-05-22 00:21:00,42.6,39.0,31.01,SSW,208,0.0,0.0,87,0.04,,---,0.00,VWS V14.01,2013-05-22 07:21:00,
2013-05-22 00:26:00,42.4,38.8,31.01,SSW,209,0.0,0.0,87,0.04,,---,0.00,VWS V14.01,2013-05-22 07:26:00,
2013-05-22 00:31:00,42.6,39.0,31.01,SSW,209,0.0,0.0,87,0.00,,---,0.00,VWS V14.01,2013-05-22 07:31:00,
2013-05-22 00:36:00,42.4,38.8,31.01,SSW,209,0.0,0.0,87,0.00,,---,0.00,VWS V14.01,2013-05-22 07:36:00,
2013-05-22 00:41:00,42.3,38.7,31.01,SSW,208,0.0,0.0,87,0.00,,---,0.00,VWS V14.01,2013-05-22 07:41:00,
2013-05-22 00:46:00,42.3,38.7,31.01,SSW,208,0.0,0.0,87,0.00,,---,0.00,VWS V14.01,2013-05-22 07:46:00,
2013-05-22 00:51:00,42.3,38.7,31.01,SSW,209,0.0,0.0,87,0.00,,---,0.00,VWS V14.01,2013-05-22 07:51:00,
2013-05-22 00:56:00,42.3,38.7,31.01,SSW,209,0.0,0.0,87,0.00,,---,0.00,VWS V14.01,2013-05-22 07:56:00,
2013-05-22 01:01:00,42.3,38.7,31.01,SSW,209,0.0,0.0,87,0.00,,---,0.00,VWS V14.01,2013-05-22 08:01:00,
2013-05-22 01:06:00,42.3,38.7,31.01,SSW,208,0.0,0.0,87,0.00,,---,0.00,VWS V14.01,2013-05-22 08:06:00,
2013-05-22 01:11:00,42.3,38.7,31.01,SSW,209,0.0,0.0,87,0.00,,---,0.00,VWS V14.01,2013-05-22 08:11:00,
2013-05-22 01:16:00,42.3,38.7,31.01,SSW,209,0.0,0.0,87,0.00,,---,0.00,VWS V14.01,2013-05-22 08:16:00,
2013-05-22 01:21:00,42.3,38.7,31.01,SSW,208,0.0,0.0,87,0.00,,---,0.00,VWS V14.01,2013-05-22 08:21:00,
2013-05-22 01:26:00,42.3,39.0,31.01,SSW,208,0.0,0.0,88,0.00,,---,0.00,VWS V14.01,2013-05-22 08:26:00,
2013-05-22 01:31:00,42.1,38.8,31.01,SSW,209,0.0,0.0,88,0.00,,---,0.00,VWS V14.01,2013-05-22 08:31:00,
2013-05-22 01:36:00,42.3,39.0,31.01,SSW,208,0.0,0.0,88,0.00,,---,0.00,VWS V14.01,2013-05-22 08:36:00,
2013-05-22 01:41:00,42.1,38.8,31.01,SSW,209,0.0,0.0,88,0.00,,---,0.00,VWS V14.01,2013-05-22 08:41:00,
2013-05-22 01:46:00,42.1,38.8,31.01,SSW,209,0.0,0.0,88,0.00,,---,0.00,VWS V14.01,2013-05-22 08:46:00,
2013-05-22 01:51:00,41.9,38.6,31.01,SSW,208,0.0,0.0,88,0.00,,---,0.00,VWS V14.01,2013-05-22 08:51:00,
2013-05-22 01:56:00,41.9,38.6,31.01,SSW,209,0.0,0.0,88,0.00,,---,0.00,VWS V14.01,2013-05-22 08:56:00,
2013-05-22 02:01:00,41.9,38.6,31.01,SSW,209,0.0,0.0,88,0.00,,---,0.00,VWS V14.01,2013-05-22 09:01:00,
2013-05-22 02:06:00,41.7,38.4,31.01,SSW,209,0.0,0.0,88,0.00,,---,0.00,VWS V14.01,2013-05-22 09:06:00,
2013-05-22 02:11:00,41.7,38.4,31.01,SSW,208,0.0,0.0,88,0.00,,---,0.00,VWS V14.01,2013-05-22 09:11:00,
2013-05-22 02:16:00,41.7,38.4,31.01,SSW,209,0.0,2.7,88,0.00,,---,0.00,VWS V14.01,2013-05-22 09:16:00,
2013-05-22 02:21:00,41.5,38.3,31.01,SSW,209,0.0,0.0,88,0.00,,---,0.00,VWS V14.01,2013-05-22 09:21:00,
2013-05-22 02:26:00,41.7,38.4,31.01,SSW,209,0.0,0.0,88,0.00,,---,0.00,VWS V14.01,2013-05-22 09:26:00,
2013-05-22 02:31:00,41.7,38.7,31.01,SSW,209,0.0,0.0,89,0.00,,---,0.00,VWS V14.01,2013-05-22 09:31:00,
2013-05-22 02:36:00,41.5,38.3,31.01,SSW,209,2.7,3.1,88,0.00,,---,0.00,VWS V14.01,2013-05-22 09:36:00,
2013-05-22 02:41:00,41.4,38.4,31.01,SSW,209,0.0,0.0,89,0.00,,---,0.00,VWS V14.01,2013-05-22 09:41:00,
2013-05-22 02:46:00,41.4,38.4,31.01,SSW,208,0.0,0.0,89,0.00,,---,0.00,VWS V14.01,2013-05-22 09:46:00,
2013-05-22 02:51:00,41.2,38.2,31.01,SSW,209,5.4,5.4,89,0.00,,---,0.00,VWS V14.01,2013-05-22 09:51:00,
2013-05-22 02:56:00,41.2,38.2,31.01,SSW,209,0.0,0.0,89,0.00,,---,0.00,VWS V14.01,2013-05-22 09:56:00,
2013-05-22 03:01:00,41.2,38.2,31.01,SSW,209,4.5,4.5,89,0.00,,---,0.00,VWS V14.01,2013-05-22 10:01:00,
2013-05-22 03:06:00,41.2,38.5,31.01,SSW,208,0.0,0.0,90,0.00,,---,0.00,VWS V14.01,2013-05-22 10:06:00,
2013-05-22 03:11:00,41.2,38.5,31.01,SSW,209,4.0,4.0,90,0.00,,---,0.00,VWS V14.01,2013-05-22 10:11:00,
2013-05-22 03:16:00,41.2,38.5,31.01,SSW,209,0.0,0.0,90,0.00,,---,0.00,VWS V14.01,2013-05-22 10:16:00,
2013-05-22 03:21:00,40.8,38.1,31.01,SSW,209,0.0,2.7,90,0.00,,---,0.00,VWS V14.01,2013-05-22 10:21:00,
2013-05-22 03:26:00,40.6,37.9,31.01,SSW,209,5.8,5.8,90,0.00,,---,0.00,VWS V14.01,2013-05-22 10:26:00,
2013-05-22 03:31:00,40.6,37.9,31.01,SSW,209,2.2,4.0,90,0.04,,---,0.04,VWS V14.01,2013-05-22 10:31:00,
2013-05-22 03:36:00,40.6,37.9,31.01,SSW,208,0.0,0.0,90,0.04,,---,0.04,VWS V14.01,2013-05-22 10:36:00,
2013-05-22 03:41:00,40.6,37.9,31.01,SSW,208,0.0,0.0,90,0.04,,---,0.04,VWS V14.01,2013-05-22 10:41:00,
2013-05-22 03:46:00,40.3,37.3,31.01,SSW,209,0.0,0.0,89,0.04,,---,0.04,VWS V14.01,2013-05-22 10:46:00,
2013-05-22 03:51:00,40.3,37.3,31.01,SSW,209,0.0,0.0,89,0.04,,---,0.04,VWS V14.01,2013-05-22 10:51:00,
2013-05-22 03:56:00,40.1,37.1,31.01,SSW,208,0.0,0.0,89,0.04,,---,0.04,VWS V14.01,2013-05-22 10:56:00,
2013-05-22 04:01:00,40.1,37.1,31.01,SSW,209,0.0,0.0,89,0.04,,---,0.04,VWS V14.01,2013-05-22 11:01:00,
2013-05-22 04:06:00,39.9,37.0,31.01,SSW,209,0.0,0.0,89,0.04,,---,0.04,VWS V14.01,2013-05-22 11:06:00,
2013-05-22 04:11:00,40.1,37.4,31.01,SSW,208,4.0,4.0,90,0.04,,---,0.04,VWS V14.01,2013-05-22 11:11:00,
2013-05-22 04:16:00,40.3,37.6,31.01,SSW,209,0.0,0.0,90,0.04,,---,0.04,VWS V14.01,2013-05-22 11:16:00,
2013-05-22 04:21:00,40.5,37.8,31.01,SSW,209,0.0,0.0,90,0.04,,---,0.04,VWS V14.01,2013-05-22 11:21:00,
2013-05-22 04:26:00,40.3,37.6,31.01,SSW,209,3.6,3.6,90,0.04,,---,0.04,VWS V14.01,2013-05-22 11:26:00,
2013-05-22 04:31:00,40.3,37.3,31.01,SSW,208,0.0,0.0,89,0.00,,---,0.04,VWS V14.01,2013-05-22 11:31:00,
2013-05-22 04:36:00,40.3,37.3,31.01,SSW,209,2.2,2.2,89,0.00,,---,0.04,VWS V14.01,2013-05-22 11:36:00,
2013-05-22 04:41:00,40.5,37.8,31.01,SSW,209,0.0,0.0,90,0.00,,---,0.04,VWS V14.01,2013-05-22 11:41:00,
2013-05-22 04:46:00,40.5,37.8,31.01,SSW,209,0.0,0.0,90,0.00,,---,0.04,VWS V14.01,2013-05-22 11:46:00,
2013-05-22 04:51:00,40.3,37.6,31.01,SSW,209,0.0,2.7,90,0.00,,---,0.04,VWS V14.01,2013-05-22 11:51:00,
2013-05-22 04:56:00,40.5,37.8,31.01,SSW,209,0.0,2.7,90,0.00,,---,0.04,VWS V14.01,2013-05-22 11:56:00,
2013-05-22 05:01:00,40.5,37.8,31.01,SSW,209,3.6,3.6,90,0.00,,---,0.04,VWS V14.01,2013-05-22 12:01:00,
2013-05-22 05:06:00,40.3,37.6,31.01,SSW,209,0.0,0.0,90,0.00,,---,0.04,VWS V14.01,2013-05-22 12:06:00,
2013-05-22 05:11:00,40.3,37.6,31.01,SSW,208,0.0,0.0,90,0.00,,---,0.04,VWS V14.01,2013-05-22 12:11:00,
2013-05-22 05:16:00,40.3,37.6,31.01,SSW,209,0.0,0.0,90,0.00,,---,0.04,VWS V14.01,2013-05-22 12:16:00,
2013-05-22 05:21:00,40.3,37.6,31.01,SSW,209,0.0,0.0,90,0.00,,---,0.04,VWS V14.01,2013-05-22 12:21:00,
2013-05-22 05:26:00,40.3,37.6,31.01,SSW,209,0.0,0.0,90,0.00,,---,0.04,VWS V14.01,2013-05-22 12:26:00,
2013-05-22 05:31:00,40.1,37.4,31.01,SSW,209,2.7,2.7,90,0.00,,---,0.04,VWS V14.01,2013-05-22 12:31:00,
2013-05-22 05:36:00,40.1,37.4,31.01,SSW,209,0.0,0.0,90,0.00,,---,0.04,VWS V14.01,2013-05-22 12:36:00,
2013-05-22 05:41:00,40.1,37.4,31.01,SSW,208,0.0,0.0,90,0.00,,---,0.04,VWS V14.01,2013-05-22 12:41:00,
2013-05-22 05:46:00,39.9,37.0,31.01,SSW,208,0.0,0.0,89,0.00,,---,0.04,VWS V14.01,2013-05-22 12:46:00,
2013-05-22 05:51:00,39.9,37.0,31.01,SSW,209,0.0,0.0,89,0.00,,---,0.04,VWS V14.01,2013-05-22 12:51:00,
2013-05-22 05:56:00,39.9,37.2,31.01,SSW,208,0.0,0.0,90,0.00,,---,0.04,VWS V14.01,2013-05-22 12:56:00,
2013-05-22 06:01:00,39.9,37.2,31.01,SSW,208,0.0,0.0,90,0.00,,---,0.04,VWS V14.01,2013-05-22 13:01:00,
2013-05-22 06:06:00,39.9,37.2,31.01,SSW,209,0.0,0.0,90,0.00,,---,0.04,VWS V14.01,2013-05-22 13:06:00,
2013-05-22 06:11:00,39.9,37.2,31.01,SSW,209,2.2,2.2,90,0.00,,---,0.04,VWS V14.01,2013-05-22 13:11:00,
2013-05-22 06:16:00,39.9,37.2,31.01,SSW,209,0.0,0.0,90,0.04,,---,0.08,VWS V14.01,2013-05-22 13:16:00,
2013-05-22 06:21:00,39.9,37.2,31.01,SSW,209,0.0,0.0,90,0.04,,---,0.08,VWS V14.01,2013-05-22 13:21:00,
2013-05-22 06:26:00,40.1,37.4,31.01,SSW,209,0.0,0.0,90,0.04,,---,0.08,VWS V14.01,2013-05-22 13:26:00,
2013-05-22 06:31:00,40.1,37.4,31.01,SSW,208,0.0,0.0,90,0.04,,---,0.08,VWS V14.01,2013-05-22 13:31:00,
2013-05-22 06:36:00,40.1,37.4,31.01,SSW,209,0.0,0.0,90,0.04,,---,0.08,VWS V14.01,2013-05-22 13:36:00,
2013-05-22 06:41:00,40.1,37.4,31.01,SSW,209,0.0,0.0,90,0.04,,---,0.08,VWS V14.01,2013-05-22 13:41:00,
2013-05-22 06:46:00,39.7,36.8,31.01,SSW,208,0.0,0.0,89,0.04,,---,0.08,VWS V14.01,2013-05-22 13:46:00,
2013-05-22 06:51:00,39.7,36.8,31.01,SSW,209,0.0,0.0,89,0.04,,---,0.08,VWS V14.01,2013-05-22 13:51:00,
2013-05-22 06:56:00,39.9,37.0,31.01,SSW,209,0.0,0.0,89,0.04,,---,0.08,VWS V14.01,2013-05-22 13:56:00,
2013-05-22 07:01:00,39.7,36.8,31.01,SSW,209,5.8,5.8,89,0.04,,---,0.08,VWS V14.01,2013-05-22 14:01:00,
2013-05-22 07:06:00,39.7,36.8,31.01,SSW,209,0.0,0.0,89,0.04,,---,0.08,VWS V14.01,2013-05-22 14:06:00,
2013-05-22 07:11:00,39.7,36.8,31.01,SSW,209,3.6,3.6,89,0.04,,---,0.08,VWS V14.01,2013-05-22 14:11:00,
2013-05-22 07:16:00,39.9,37.2,31.01,SSW,209,0.0,0.0,90,0.04,,---,0.08,VWS V14.01,2013-05-22 14:16:00,
2013-05-22 07:21:00,39.9,37.2,31.01,SSW,209,0.0,0.0,90,0.04,,---,0.12,VWS V14.01,2013-05-22 14:21:00,
2013-05-22 07:26:00,39.9,37.0,31.01,SSW,208,0.0,0.0,89,0.04,,---,0.12,VWS V14.01,2013-05-22 14:26:00,
2013-05-22 07:31:00,39.7,36.5,31.01,SSW,208,3.6,3.6,88,0.04,,---,0.12,VWS V14.01,2013-05-22 14:31:00,
2013-05-22 07:36:00,39.7,36.8,31.01,SSW,209,0.0,0.0,89,0.04,,---,0.12,VWS V14.01,2013-05-22 14:36:00,
2013-05-22 07:41:00,39.7,36.8,31.01,SSW,208,0.0,0.0,89,0.04,,---,0.12,VWS V14.01,2013-05-22 14:41:00,
2013-05-22 07:46:00,39.6,36.6,31.01,SSW,209,0.0,0.0,89,0.04,,---,0.12,VWS V14.01,2013-05-22 14:46:00,
2013-05-22 07:51:00,39.7,36.8,31.01,SSW,208,0.0,0.0,89,0.12,,---,0.20,VWS V14.01,2013-05-22 14:51:00,
2013-05-22 07:56:00,39.7,36.8,31.01,SSW,209,0.0,0.0,89,0.12,,---,0.20,VWS V14.01,2013-05-22 14:56:00,
2013-05-22 08:01:00,39.7,36.8,31.01,SSW,209,0.0,0.0,89,0.12,,---,0.20,VWS V14.01,2013-05-22 15:01:00,
2013-05-22 08:06:00,39.7,36.8,31.01,SSW,208,0.0,0.0,89,0.12,,---,0.20,VWS V14.01,2013-05-22 15:06:00,
2013-05-22 08:11:00,39.7,36.5,31.01,SSW,209,0.0,0.0,88,0.12,,---,0.20,VWS V14.01,2013-05-22 15:11:00,
2013-05-22 08:16:00,39.7,36.8,31.01,SSW,209,0.0,0.0,89,0.12,,---,0.20,VWS V14.01,2013-05-22 15:16:00,
2013-05-22 08:21:00,39.7,36.5,31.01,SSW,209,3.6,3.6,88,0.08,,---,0.20,VWS V14.01,2013-05-22 15:21:00,
2013-05-22 08:26:00,39.4,36.1,31.01,SSW,208,0.0,0.0,88,0.08,,---,0.20,VWS V14.01,2013-05-22 15:26:00,
2013-05-22 08:31:00,39.4,36.1,31.01,SSW,209,0.0,0.0,88,0.16,,---,0.28,VWS V14.01,2013-05-22 15:31:00,
2013-05-22 08:35:00,39.7,36.5,31.01,SSW,209,0.0,0.0,88,0.16,,---,0.28,VWS V14.01,2013-05-22 15:35:00,
2013-05-22 08:40:00,39.7,36.5,31.01,SSW,209,0.0,0.0,88,0.16,,---,0.28,VWS V14.01,2013-05-22 15:40:00,
2013-05-22 08:45:00,39.7,36.5,31.01,SSW,209,0.0,0.0,88,0.16,,---,0.28,VWS V14.01,2013-05-22 15:45:00,
2013-05-22 08:50:00,39.7,36.5,31.01,SSW,208,0.0,0.0,88,0.08,,---,0.28,VWS V14.01,2013-05-22 15:50:00,
2013-05-22 08:55:00,39.9,36.7,31.01,SSW,208,0.0,0.0,88,0.08,,---,0.28,VWS V14.01,2013-05-22 15:55:00,
2013-05-22 09:00:00,39.9,36.7,31.01,SSW,209,0.0,0.0,88,0.12,,---,0.31,VWS V14.01,2013-05-22 16:00:00,
2013-05-22 09:05:00,39.6,36.0,31.01,SSW,208,0.0,0.0,87,0.12,,---,0.31,VWS V14.01,2013-05-22 16:05:00,
2013-05-22 09:11:00,39.7,36.5,31.01,SSW,208,0.0,0.0,88,0.12,,---,0.31,VWS V14.01,2013-05-22 16:11:00,
2013-05-22 09:16:00,39.9,36.7,31.01,SSW,209,0.0,0.0,88,0.12,,---,0.31,VWS V14.01,2013-05-22 16:16:00,
2013-05-22 09:21:00,40.1,36.8,31.01,SSW,209,0.0,0.0,88,0.12,,---,0.31,VWS V14.01,2013-05-22 16:21:00,
2013-05-22 09:26:00,40.1,36.8,31.01,SSW,209,0.0,0.0,88,0.12,,---,0.31,VWS V14.01,2013-05-22 16:26:00,
2013-05-22 09:31:00,39.6,35.7,31.01,SSW,209,0.0,0.0,86,0.08,,---,0.35,VWS V14.01,2013-05-22 16:31:00,
2013-05-22 09:36:00,39.4,35.5,31.01,SSW,209,0.0,0.0,86,0.08,,---,0.35,VWS V14.01,2013-05-22 16:36:00,
2013-05-22 09:41:00,39.2,35.1,31.01,SSW,209,0.0,0.0,85,0.08,,---,0.35,VWS V14.01,2013-05-22 16:41:00,
2013-05-22 09:46:00,39.0,34.9,31.01,SSW,209,0.0,0.0,85,0.08,,---,0.35,VWS V14.01,2013-05-22 16:46:00,
2013-05-22 09:51:00,38.8,34.7,31.01,SSW,209,0.0,0.0,85,0.08,,---,0.35,VWS V14.01,2013-05-22 16:51:00,
2013-05-22 09:56:00,38.8,34.7,31.01,SSW,209,0.0,0.0,85,0.12,,---,0.39,VWS V14.01,2013-05-22 16:56:00,
2013-05-22 10:01:00,37.9,32.6,31.01,SSW,209,0.0,0.0,81,0.08,,---,0.39,VWS V14.01,2013-05-22 17:01:00,
2013-05-22 10:06:00,37.6,32.6,31.01,SSW,209,0.0,0.0,82,0.08,,---,0.39,VWS V14.01,2013-05-22 17:06:00,
2013-05-22 10:11:00,37.2,32.8,31.01,SSW,209,0.0,0.0,84,0.08,,---,0.39,VWS V14.01,2013-05-22 17:11:00,
2013-05-22 10:16:00,37.4,33.3,31.01,SSW,209,0.0,0.0,85,0.08,,---,0.39,VWS V14.01,2013-05-22 17:16:00,
2013-05-22 10:21:00,37.6,33.8,31.01,SSW,209,0.0,0.0,86,0.12,,---,0.43,VWS V14.01,2013-05-22 17:21:00,
2013-05-22 10:26:00,37.9,34.1,31.01,SSW,209,0.0,0.0,86,0.12,,---,0.43,VWS V14.01,2013-05-22 17:26:00,
2013-05-22 10:31:00,38.7,35.1,31.01,SSW,208,0.0,0.0,87,0.08,,---,0.43,VWS V14.01,2013-05-22 17:31:00,
2013-05-22 10:35:00,39.2,35.7,31.01,SSW,209,0.0,0.0,87,0.08,,---,0.43,VWS V14.01,2013-05-22 17:35:00,
2013-05-22 10:40:00,38.8,34.7,31.01,SSW,208,0.0,0.0,85,0.08,,---,0.43,VWS V14.01,2013-05-22 17:40:00,
2013-05-22 10:45:00,39.0,35.2,31.01,SSW,209,0.0,0.0,86,0.08,,---,0.43,VWS V14.01,2013-05-22 17:45:00,
2013-05-22 10:50:00,39.2,35.4,31.01,SSW,209,0.0,0.0,86,0.08,,---,0.43,VWS V14.01,2013-05-22 17:50:00,
2013-05-22 10:55:00,39.2,35.1,31.01,SSW,209,0.0,0.0,85,0.08,,---,0.43,VWS V14.01,2013-05-22 17:55:00,
2013-05-22 11:00:00,38.7,34.2,31.01,SSW,208,0.0,0.0,84,0.04,,---,0.43,VWS V14.01,2013-05-22 18:00:00,
2013-05-22 11:05:00,38.8,34.7,31.01,SSW,209,0.0,0.0,85,0.04,,---,0.43,VWS V14.01,2013-05-22 18:05:00,
2013-05-22 11:10:00,39.0,35.2,31.01,SSW,208,0.0,0.0,86,0.04,,---,0.43,VWS V14.01,2013-05-22 18:10:00,
2013-05-22 11:15:00,39.4,35.5,31.01,SSW,208,0.0,0.0,86,0.04,,---,0.43,VWS V14.01,2013-05-22 18:15:00,
2013-05-22 11:20:00,39.7,35.6,31.01,SSW,209,0.0,0.0,85,0.00,,---,0.43,VWS V14.01,2013-05-22 18:20:00,
2013-05-22 11:25:00,39.7,35.0,31.01,SSW,209,0.0,0.0,83,0.00,,---,0.43,VWS V14.01,2013-05-22 18:25:00,
2013-05-22 11:30:00,39.9,35.2,31.01,SSW,209,0.0,0.0,83,0.00,,---,0.43,VWS V14.01,2013-05-22 18:30:00,
2013-05-22 11:35:00,40.5,35.7,31.01,SSW,209,0.0,0.0,83,0.00,,---,0.43,VWS V14.01,2013-05-22 18:35:00,
2013-05-22 11:40:00,40.3,35.2,31.01,SSW,209,0.0,0.0,82,0.04,,---,0.47,VWS V14.01,2013-05-22 18:40:00,
2013-05-22 11:45:00,40.6,36.2,31.01,SSW,208,0.0,0.0,84,0.04,,---,0.47,VWS V14.01,2013-05-22 18:45:00,
2013-05-22 11:50:00,40.6,35.9,31.01,SSW,209,0.0,0.0,83,0.04,,---,0.47,VWS V14.01,2013-05-22 18:50:00,
2013-05-22 11:55:00,40.6,35.9,31.01,SSW,209,0.0,0.0,83,0.04,,---,0.47,VWS V14.01,2013-05-22 18:55:00,
2013-05-22 12:00:00,43.2,38.4,31.01,SSW,209,0.0,0.0,83,0.04,,---,0.47,VWS V14.01,2013-05-22 19:00:00,
2013-05-22 12:05:00,43.3,38.2,31.01,SSW,209,0.0,0.0,82,0.04,,---,0.47,VWS V14.01,2013-05-22 19:05:00,
2013-05-22 12:10:00,42.8,36.4,31.01,SSW,209,0.0,0.0,78,0.08,,---,0.51,VWS V14.01,2013-05-22 19:10:00,
2013-05-22 12:15:00,43.3,38.2,31.01,SSW,209,0.0,0.0,82,0.08,,---,0.51,VWS V14.01,2013-05-22 19:15:00,
2013-05-22 12:20:00,43.5,38.4,31.01,SSW,209,0.0,0.0,82,0.08,,---,0.51,VWS V14.01,2013-05-22 19:20:00,
2013-05-22 12:25:00,43.5,38.4,31.01,SSW,209,0.0,0.0,82,0.08,,---,0.51,VWS V14.01,2013-05-22 19:25:00,
2013-05-22 12:30:00,44.1,38.6,31.01,SSW,209,2.7,2.7,81,0.08,,---,0.51,VWS V14.01,2013-05-22 19:30:00,
2013-05-22 12:35:00,44.1,38.6,31.01,SSW,209,0.0,0.0,81,0.08,,---,0.51,VWS V14.01,2013-05-22 19:35:00,
2013-05-22 12:40:00,44.4,39.3,31.01,SSW,209,3.6,3.6,82,0.08,,---,0.51,VWS V14.01,2013-05-22 19:40:00,
2013-05-22 12:45:00,44.4,38.7,31.01,SSW,209,0.0,0.0,80,0.08,,---,0.51,VWS V14.01,2013-05-22 19:45:00,
2013-05-22 12:50:00,43.9,37.2,31.01,SSW,208,0.0,0.0,77,0.04,,---,0.51,VWS V14.01,2013-05-22 19:50:00,
2013-05-22 12:55:00,43.9,37.2,31.01,SSW,209,0.0,0.0,77,0.04,,---,0.51,VWS V14.01,2013-05-22 19:55:00,
2013-05-22 13:00:00,44.2,38.5,31.01,SSW,209,0.0,0.0,80,0.04,,---,0.51,VWS V14.01,2013-05-22 20:00:00,
2013-05-22 13:05:00,44.2,38.2,31.01,SSW,209,0.0,0.0,79,0.08,,---,0.55,VWS V14.01,2013-05-22 20:05:00,
2013-05-22 13:10:00,45.0,39.5,31.01,SSW,209,0.0,0.0,81,0.04,,---,0.55,VWS V14.01,2013-05-22 20:10:00,
2013-05-22 13:15:00,44.6,37.8,31.01,SSW,209,2.2,2.2,77,0.04,,---,0.55,VWS V14.01,2013-05-22 20:15:00,
2013-05-22 13:20:00,44.6,38.2,31.01,SSW,209,0.0,0.0,78,0.04,,---,0.55,VWS V14.01,2013-05-22 20:20:00,
2013-05-22 13:25:00,44.6,38.5,31.01,SSW,209,0.0,0.0,79,0.04,,---,0.55,VWS V14.01,2013-05-22 20:25:00,
2013-05-22 13:30:00,44.6,38.5,31.01,SSW,209,0.0,3.1,79,0.04,,---,0.55,VWS V14.01,2013-05-22 20:30:00,
2013-05-22 13:35:00,44.6,38.5,31.01,SSW,209,0.0,0.0,79,0.04,,---,0.55,VWS V14.01,2013-05-22 20:35:00,
2013-05-22 13:40:00,44.8,38.7,31.01,SSW,209,2.7,2.7,79,0.04,,---,0.55,VWS V14.01,2013-05-22 20:40:00,
2013-05-22 13:45:00,45.1,38.7,31.01,SSW,209,0.0,0.0,78,0.04,,---,0.55,VWS V14.01,2013-05-22 20:45:00,
2013-05-22 13:50:00,45.5,38.7,31.01,SSW,209,0.0,0.0,77,0.04,,---,0.55,VWS V14.01,2013-05-22 20:50:00,
2013-05-22 13:55:00,45.5,38.7,31.01,SSW,209,0.0,0.0,77,0.04,,---,0.55,VWS V14.01,2013-05-22 20:55:00,
2013-05-22 14:00:00,45.9,38.4,31.01,SSW,209,0.0,0.0,75,0.04,,---,0.55,VWS V14.01,2013-05-22 21:00:00,
2013-05-22 14:05:00,46.4,39.3,31.01,SSW,209,0.0,0.0,76,0.04,,---,0.55,VWS V14.01,2013-05-22 21:05:00,
2013-05-22 14:10:00,46.6,38.8,31.01,SSW,209,0.0,3.1,74,0.00,,---,0.55,VWS V14.01,2013-05-22 21:10:00,
2013-05-22 14:15:00,46.4,38.6,31.01,SSW,209,0.0,0.0,74,0.00,,---,0.55,VWS V14.01,2013-05-22 21:15:00,
2013-05-22 14:20:00,46.6,39.1,31.01,SSW,209,3.1,3.1,75,0.00,,---,0.55,VWS V14.01,2013-05-22 21:20:00,
2013-05-22 14:25:00,46.6,38.8,31.01,SSW,209,3.6,3.6,74,0.00,,---,0.55,VWS V14.01,2013-05-22 21:25:00,
2013-05-22 14:30:00,46.6,38.8,31.01,SSW,209,2.7,2.7,74,0.00,,---,0.55,VWS V14.01,2013-05-22 21:30:00,
2013-05-22 14:35:00,46.2,38.4,31.01,SSW,209,0.0,0.0,74,0.00,,---,0.55,VWS V14.01,2013-05-22 21:35:00,
2013-05-22 14:40:00,46.2,38.4,31.01,SSW,209,2.7,2.7,74,0.00,,---,0.55,VWS V14.01,2013-05-22 21:40:00,
2013-05-22 14:45:00,46.4,38.9,31.01,SSW,209,0.0,0.0,75,0.00,,---,0.55,VWS V14.01,2013-05-22 21:45:00,
2013-05-22 14:50:00,46.4,38.6,31.01,SSW,209,0.0,0.0,74,0.00,,---,0.55,VWS V14.01,2013-05-22 21:50:00,
2013-05-22 14:55:00,46.4,38.9,31.01,SSW,209,0.0,0.0,75,0.00,,---,0.55,VWS V14.01,2013-05-22 21:55:00,
2013-05-22 15:00:00,46.2,38.8,31.01,SSW,209,3.6,3.6,75,0.00,,---,0.55,VWS V14.01,2013-05-22 22:00:00,
2013-05-22 15:05:00,46.0,38.2,31.01,SSW,209,2.7,2.7,74,0.00,,---,0.55,VWS V14.01,2013-05-22 22:05:00,
2013-05-22 15:10:00,46.0,38.2,31.01,SSW,209,0.0,3.1,74,0.00,,---,0.55,VWS V14.01,2013-05-22 22:10:00,
2013-05-22 15:15:00,45.5,37.7,31.01,SSW,209,2.7,2.7,74,0.00,,---,0.55,VWS V14.01,2013-05-22 22:15:00,
2013-05-22 15:20:00,45.5,38.0,31.01,SSW,209,0.0,0.0,75,0.00,,---,0.55,VWS V14.01,2013-05-22 22:20:00,
2013-05-22 15:25:00,45.5,38.0,31.01,SSW,209,5.4,5.4,75,0.00,,---,0.55,VWS V14.01,2013-05-22 22:25:00,
2013-05-22 15:30:00,46.2,38.8,31.01,SSW,209,0.0,0.0,75,0.00,,---,0.55,VWS V14.01,2013-05-22 22:30:00,
2013-05-22 15:35:00,46.2,38.4,31.01,SSW,209,3.1,3.1,74,0.00,,---,0.55,VWS V14.01,2013-05-22 22:35:00,
2013-05-22 15:40:00,47.1,39.6,31.01,SSW,209,6.3,6.3,75,0.00,,---,0.55,VWS V14.01,2013-05-22 22:40:00,
2013-05-22 15:45:00,47.7,40.5,31.01,SSW,209,3.6,3.6,76,0.00,,---,0.55,VWS V14.01,2013-05-22 22:45:00,
2013-05-22 15:50:00,47.8,40.0,31.01,SSW,209,8.7,8.7,74,0.00,,---,0.55,VWS V14.01,2013-05-22 22:50:00,
2013-05-22 15:55:00,48.7,41.2,31.01,SSW,209,0.0,0.0,75,0.00,,---,0.55,VWS V14.01,2013-05-22 22:55:00,
2013-05-22 16:00:00,48.9,40.7,31.01,SSW,209,0.0,0.0,73,0.00,,---,0.55,VWS V14.01,2013-05-22 23:00:00,
2013-05-22 16:05:00,49.6,41.0,31.01,SSW,209,3.1,3.1,72,0.00,,---,0.55,VWS V14.01,2013-05-22 23:05:00,
2013-05-22 16:10:00,50.2,41.5,31.01,SSW,209,0.0,0.0,72,0.00,,---,0.55,VWS V14.01,2013-05-22 23:10:00,
2013-05-22 16:15:00,50.4,41.0,31.01,SSW,209,4.0,4.0,70,0.00,,---,0.55,VWS V14.01,2013-05-22 23:15:00,
2013-05-22 16:20:00,50.4,40.6,31.01,SSW,209,5.4,5.4,69,0.00,,---,0.55,VWS V14.01,2013-05-22 23:20:00,
2013-05-22 16:25:00,49.6,38.8,31.01,SSW,209,2.7,2.7,66,0.00,,---,0.55,VWS V14.01,2013-05-22 23:25:00,
2013-05-22 16:30:00,49.6,38.8,31.01,SSW,209,3.1,7.6,66,0.00,,---,0.55,VWS V14.01,2013-05-22 23:30:00,
2013-05-22 16:35:00,48.0,38.3,31.01,SSW,209,5.4,5.4,69,0.00,,---,0.55,VWS V14.01,2013-05-22 23:35:00,
2013-05-22 16:40:00,47.8,39.3,31.01,SSW,209,5.8,5.8,72,0.00,,---,0.55,VWS V14.01,2013-05-22 23:40:00,
2013-05-22 16:45:00,48.0,39.4,31.01,SSW,209,4.0,4.0,72,0.00,,---,0.55,VWS V14.01,2013-05-22 23:45:00,
2013-05-22 16:50:00,47.7,38.0,31.01,SSW,209,3.1,5.4,69,0.00,,---,0.55,VWS V14.01,2013-05-22 23:50:00,
2013-05-22 16:55:00,47.5,38.6,31.01,SSW,209,4.0,4.0,71,0.00,,---,0.55,VWS V14.01,2013-05-22 23:55:00,
2013-05-22 17:00:00,47.7,39.1,31.01,SSW,209,0.0,0.0,72,0.00,,---,0.55,VWS V14.01,2013-05-23 00:00:00,
2013-05-22 17:05:00,48.0,39.4,31.01,SSW,209,4.9,4.9,72,0.00,,---,0.55,VWS V14.01,2013-05-23 00:05:00,
2013-05-22 17:10:00,48.0,38.3,31.01,SSW,209,4.0,4.0,69,0.00,,---,0.55,VWS V14.01,2013-05-23 00:10:00,
2013-05-22 17:15:00,47.5,38.2,31.01,SSW,209,2.7,2.7,70,0.00,,---,0.55,VWS V14.01,2013-05-23 00:15:00,
2013-05-22 17:20:00,47.5,38.6,31.01,SSW,209,4.0,4.0,71,0.00,,---,0.55,VWS V14.01,2013-05-23 00:20:00,
2013-05-22 17:25:00,47.3,38.4,31.01,SSW,209,3.6,3.6,71,0.00,,---,0.55,VWS V14.01,2013-05-23 00:25:00,
2013-05-22 17:30:00,47.1,37.8,31.01,SSW,209,2.7,2.7,70,0.00,,---,0.55,VWS V14.01,2013-05-23 00:30:00,
2013-05-22 17:35:00,46.9,37.7,31.01,SSW,209,0.0,0.0,70,0.00,,---,0.55,VWS V14.01,2013-05-23 00:35:00,
2013-05-22 17:40:00,46.9,37.7,31.01,SSW,209,0.0,0.0,70,0.00,,---,0.55,VWS V14.01,2013-05-23 00:40:00,
2013-05-22 17:45:00,46.2,38.1,31.01,SSW,209,2.7,2.7,73,0.00,,---,0.55,VWS V14.01,2013-05-23 00:45:00,
2013-05-22 17:50:00,46.2,38.1,31.01,SSW,209,0.0,0.0,73,0.00,,---,0.55,VWS V14.01,2013-05-23 00:50:00,
2013-05-22 17:55:00,46.9,38.4,31.01,SSW,209,0.0,0.0,72,0.00,,---,0.55,VWS V14.01,2013-05-23 00:55:00,
2013-05-22 18:00:00,46.9,38.4,31.01,SSW,209,3.6,3.6,72,0.00,,---,0.55,VWS V14.01,2013-05-23 01:00:00,
2013-05-22 18:05:00,46.8,37.5,31.01,SSW,209,3.6,4.0,70,0.00,,---,0.55,VWS V14.01,2013-05-23 01:05:00,
2013-05-22 18:10:00,46.2,37.0,31.01,SSW,209,4.0,4.0,70,0.00,,---,0.55,VWS V14.01,2013-05-23 01:10:00,
2013-05-22 18:15:00,46.0,37.5,31.01,SSW,209,6.3,6.3,72,0.00,,---,0.55,VWS V14.01,2013-05-23 01:15:00,
2013-05-22 18:20:00,46.2,38.1,31.01,SSW,209,2.7,5.4,73,0.00,,---,0.55,VWS V14.01,2013-05-23 01:20:00,
2013-05-22 18:25:00,46.2,38.1,31.01,SSW,208,4.5,4.5,73,0.00,,---,0.55,VWS V14.01,2013-05-23 01:25:00,
2013-05-22 18:30:00,45.7,36.8,31.01,SSW,209,0.0,0.0,71,0.00,,---,0.55,VWS V14.01,2013-05-23 01:30:00,
2013-05-22 18:35:00,45.7,36.8,31.01,SSW,209,0.0,0.0,71,0.00,,---,0.55,VWS V14.01,2013-05-23 01:35:00,
2013-05-22 18:40:00,46.2,37.7,31.01,SSW,209,0.0,0.0,72,0.00,,---,0.55,VWS V14.01,2013-05-23 01:40:00,
2013-05-22 18:45:00,46.4,37.9,31.01,SSW,209,0.0,2.7,72,0.00,,---,0.55,VWS V14.01,2013-05-23 01:45:00,
2013-05-22 18:50:00,46.8,37.9,31.01,SSW,209,0.0,0.0,71,0.00,,---,0.55,VWS V14.01,2013-05-23 01:50:00,
2013-05-22 18:55:00,46.6,36.6,31.01,SSW,209,0.0,0.0,68,0.00,,---,0.55,VWS V14.01,2013-05-23 01:55:00,
2013-05-22 19:00:00,46.6,37.0,31.01,SSW,209,6.7,6.7,69,0.00,,---,0.55,VWS V14.01,2013-05-23 02:00:00,
2013-05-22 19:05:00,46.6,37.3,31.01,SSW,209,0.0,0.0,70,0.00,,---,0.55,VWS V14.01,2013-05-23 02:05:00,
2013-05-22 19:10:00,46.8,37.9,31.01,SSW,209,3.6,3.6,71,0.00,,---,0.55,VWS V14.01,2013-05-23 02:10:00,
2013-05-22 19:15:00,46.4,37.5,31.01,SSW,209,3.1,3.1,71,0.00,,---,0.55,VWS V14.01,2013-05-23 02:15:00,
2013-05-22 19:20:00,46.2,37.7,31.01,SSW,209,3.1,3.1,72,0.00,,---,0.55,VWS V14.01,2013-05-23 02:20:00,
2013-05-22 19:25:00,46.0,37.9,31.01,SSW,209,3.1,3.1,73,0.00,,---,0.55,VWS V14.01,2013-05-23 02:25:00,
2013-05-22 19:30:00,46.0,38.2,31.01,SSW,209,0.0,0.0,74,0.00,,---,0.55,VWS V14.01,2013-05-23 02:30:00,
2013-05-22 19:35:00,45.9,38.0,31.01,SSW,209,0.0,0.0,74,0.00,,---,0.55,VWS V14.01,2013-05-23 02:35:00,
2013-05-22 19:40:00,45.9,38.4,31.01,SSW,209,5.4,5.4,75,0.00,,---,0.55,VWS V14.01,2013-05-23 02:40:00,
2013-05-22 19:45:00,45.5,37.7,31.01,SSW,209,5.4,5.4,74,0.00,,---,0.55,VWS V14.01,2013-05-23 02:45:00,
2013-05-22 19:50:00,45.3,37.9,31.01,SSW,209,0.0,3.6,75,0.00,,---,0.55,VWS V14.01,2013-05-23 02:50:00,
2013-05-22 19:55:00,45.1,37.7,31.01,SSW,209,0.0,0.0,75,0.00,,---,0.55,VWS V14.01,2013-05-23 02:55:00,
2013-05-22 20:00:00,45.1,37.7,31.01,SSW,209,0.0,0.0,75,0.00,,---,0.55,VWS V14.01,2013-05-23 03:00:00,
2013-05-22 20:05:00,45.1,38.0,31.01,SSW,209,0.0,0.0,76,0.00,,---,0.55,VWS V14.01,2013-05-23 03:05:00,
2013-05-22 20:10:00,45.0,37.9,31.01,SSW,209,0.0,0.0,76,0.00,,---,0.55,VWS V14.01,2013-05-23 03:10:00,
2013-05-22 20:15:00,44.8,37.7,31.01,SSW,209,4.0,4.0,76,0.00,,---,0.55,VWS V14.01,2013-05-23 03:15:00,
2013-05-22 20:20:00,44.6,37.8,31.01,SSW,209,0.0,0.0,77,0.00,,---,0.55,VWS V14.01,2013-05-23 03:20:00,
2013-05-22 20:25:00,44.6,37.8,31.01,SSW,208,0.0,0.0,77,0.00,,---,0.55,VWS V14.01,2013-05-23 03:25:00,
2013-05-22 20:30:00,44.1,37.3,31.01,SSW,209,0.0,0.0,77,0.00,,---,0.55,VWS V14.01,2013-05-23 03:30:00,
2013-05-22 20:35:00,44.1,37.3,31.01,SSW,208,2.7,3.6,77,0.00,,---,0.55,VWS V14.01,2013-05-23 03:35:00,
2013-05-22 20:40:00,43.5,36.8,31.01,SSW,208,2.7,3.1,77,0.00,,---,0.55,VWS V14.01,2013-05-23 03:40:00,
2013-05-22 20:45:00,43.2,36.8,31.01,SSW,209,0.0,0.0,78,0.00,,---,0.55,VWS V14.01,2013-05-23 03:45:00,
2013-05-22 20:50:00,43.0,36.6,31.01,SSW,209,0.0,0.0,78,0.00,,---,0.55,VWS V14.01,2013-05-23 03:50:00,
2013-05-22 20:55:00,42.8,36.8,31.01,SSW,208,0.0,0.0,79,0.00,,---,0.55,VWS V14.01,2013-05-23 03:55:00,
2013-05-22 21:00:00,42.4,36.4,31.01,SSW,208,0.0,0.0,79,0.00,,---,0.55,VWS V14.01,2013-05-23 04:00:00,
2013-05-22 21:01:00,42.4,36.4,31.01,SSW,208,0.0,0.0,79,0.00,,---,0.55,VWS V14.01,2013-05-23 04:01:00,
2013-05-22 21:06:00,42.3,36.5,31.01,SSW,208,0.0,0.0,80,0.00,,---,0.55,VWS V14.01,2013-05-23 04:06:00,
2013-05-22 21:11:00,42.3,36.5,31.01,SSW,209,0.0,0.0,80,0.00,,---,0.55,VWS V14.01,2013-05-23 04:11:00,
2013-05-22 21:16:00,41.7,36.3,31.01,SSW,209,0.0,0.0,81,0.00,,---,0.55,VWS V14.01,2013-05-23 04:16:00,
2013-05-22 21:21:00,41.5,36.2,31.01,SSW,209,0.0,0.0,81,0.00,,---,0.55,VWS V14.01,2013-05-23 04:21:00,
2013-05-22 21:26:00,41.4,36.0,31.01,SSW,208,0.0,0.0,81,0.00,,---,0.55,VWS V14.01,2013-05-23 04:26:00,
2013-05-22 21:31:00,41.4,36.0,31.01,SSW,208,0.0,0.0,81,0.00,,---,0.55,VWS V14.01,2013-05-23 04:31:00,
2013-05-22 21:36:00,41.0,35.6,31.01,SSW,208,0.0,0.0,81,0.00,,---,0.55,VWS V14.01,2013-05-23 04:36:00,
2013-05-22 21:41:00,41.0,35.9,31.01,SSW,209,0.0,0.0,82,0.00,,---,0.55,VWS V14.01,2013-05-23 04:41:00,
2013-05-22 21:46:00,41.0,35.9,31.01,SSW,208,0.0,0.0,82,0.00,,---,0.55,VWS V14.01,2013-05-23 04:46:00,
2013-05-22 21:51:00,41.0,35.9,31.01,SSW,208,0.0,0.0,82,0.00,,---,0.55,VWS V14.01,2013-05-23 04:51:00,
2013-05-22 21:56:00,41.2,36.4,31.01,SSW,209,0.0,0.0,83,0.00,,---,0.55,VWS V14.01,2013-05-23 04:56:00,
2013-05-22 22:01:00,41.2,36.4,31.01,SSW,208,0.0,0.0,83,0.00,,---,0.55,VWS V14.01,2013-05-23 05:01:00,
2013-05-22 22:06:00,41.4,36.9,31.01,SSW,209,0.0,0.0,84,0.00,,---,0.55,VWS V14.01,2013-05-23 05:06:00,
2013-05-22 22:11:00,41.5,37.1,31.01,SSW,208,0.0,0.0,84,0.00,,---,0.55,VWS V14.01,2013-05-23 05:11:00,
2013-05-22 22:16:00,41.5,37.4,31.01,SSW,208,0.0,0.0,85,0.00,,---,0.55,VWS V14.01,2013-05-23 05:16:00,
2013-05-22 22:21:00,41.5,37.4,31.01,SSW,208,0.0,0.0,85,0.00,,---,0.55,VWS V14.01,2013-05-23 05:21:00,
2013-05-22 22:26:00,41.7,37.8,31.01,SSW,209,0.0,0.0,86,0.00,,---,0.55,VWS V14.01,2013-05-23 05:26:00,
2013-05-22 22:31:00,41.7,37.8,31.01,SSW,209,0.0,0.0,86,0.00,,---,0.55,VWS V14.01,2013-05-23 05:31:00,
2013-05-22 22:36:00,41.7,37.5,31.01,SSW,208,0.0,0.0,85,0.00,,---,0.55,VWS V14.01,2013-05-23 05:36:00,
2013-05-22 22:41:00,41.7,37.5,31.01,SSW,208,0.0,0.0,85,0.00,,---,0.55,VWS V14.01,2013-05-23 05:41:00,
2013-05-22 22:46:00,41.7,37.5,31.01,SSW,209,0.0,0.0,85,0.00,,---,0.55,VWS V14.01,2013-05-23 05:46:00,
2013-05-22 22:51:00,42.1,37.9,31.01,SSW,208,0.0,0.0,85,0.00,,---,0.55,VWS V14.01,2013-05-23 05:51:00,
2013-05-22 22:56:00,41.9,37.7,31.01,SSW,208,0.0,0.0,85,0.00,,---,0.55,VWS V14.01,2013-05-23 05:56:00,
2013-05-22 23:01:00,42.1,37.9,31.01,SSW,208,0.0,0.0,85,0.00,,---,0.55,VWS V14.01,2013-05-23 06:01:00,
2013-05-22 23:06:00,41.9,37.7,31.01,SSW,209,0.0,0.0,85,0.00,,---,0.55,VWS V14.01,2013-05-23 06:06:00,
2013-05-22 23:11:00,42.1,37.9,31.01,SSW,209,0.0,0.0,85,0.00,,---,0.55,VWS V14.01,2013-05-23 06:11:00,
2013-05-22 23:16:00,42.1,37.9,31.01,SSW,208,0.0,0.0,85,0.00,,---,0.55,VWS V14.01,2013-05-23 06:16:00,
2013-05-22 23:21:00,41.9,38.0,31.01,SSW,209,0.0,0.0,86,0.00,,---,0.55,VWS V14.01,2013-05-23 06:21:00,
2013-05-22 23:26:00,42.1,38.2,31.01,SSW,209,0.0,0.0,86,0.00,,---,0.55,VWS V14.01,2013-05-23 06:26:00,
2013-05-22 23:31:00,41.9,38.0,31.01,SSW,208,0.0,0.0,86,0.00,,---,0.55,VWS V14.01,2013-05-23 06:31:00,
2013-05-22 23:36:00,41.9,38.0,31.01,SSW,208,0.0,0.0,86,0.00,,---,0.55,VWS V14.01,2013-05-23 06:36:00,
2013-05-22 23:41:00,42.1,38.2,31.01,SSW,209,0.0,0.0,86,0.00,,---,0.55,VWS V14.01,2013-05-23 06:41:00,
2013-05-22 23:46:00,42.1,38.2,31.01,SSW,208,0.0,0.0,86,0.04,,---,0.59,VWS V14.01,2013-05-23 06:46:00,
2013-05-22 23:51:00,41.9,38.0,31.01,SSW,208,0.0,0.0,86,0.04,,---,0.59,VWS V14.01,2013-05-23 06:51:00,
2013-05-22 23:56:00,42.1,38.5,31.01,SSW,208,0.0,0.0,87,0.04,,---,0.59,VWS V14.01,2013-05-23 06:56:00,